Welcome to Northern Hawkes Bay. New Zealand.
PWS Header
      nz Flag



Hit Counter


W3C Valid W3C Valid logo


    Wairoa

Select any of the Stations below to visit their websites.










Historic Data from Weather Underground
Select the location of interest below. Wairoa is the default. Please have patience, this Data is slow to load in.
Northern Hawkes Bay Historical Data
Daily Summary for January 6, 2017 Units:  Metric    English   Both
« Previous Day
Next Day »
Daily Weekly Monthly Yearly Custom
  High: Low: Average:
Temperature: 21.7 °C 10.9 °C 17.2 °C
Dew Point: 13.1 °C 6.0 °C 8.8 °C
Humidity: 77% 36% 59%
Wind Speed: 24.5km/h 0.0km/h 9.3km/h
Wind Gust: 39.3km/h - -
Wind- - WSW
Pressure: 1011.1 hPa 1009.4 hPa -
Precipitation: 0.0 mm    
Historical Graphs
 
 
Tabular Data for January 6, 2017
Time Temperature Dew Point Pressure Wind Wind Speed Wind Gust Humidity Rainfall Rate (Hourly) solar
00:02 21.7 °C 6.0 °C 1009.7 hPa NW 23.3 km/h 39.3 km/h 36% 0.0 mm 179 W/m2
00:07 21.3 °C 6.1 °C 1009.7 hPa NW 14.8 km/h 36.7 km/h 37% 0.0 mm 155 W/m2
00:12 21.3 °C 7.2 °C 1009.7 hPa NW 20.9 km/h 36.7 km/h 40% 0.0 mm 143 W/m2
00:17 21.3 °C 6.8 °C 1009.4 hPa NNW 13.4 km/h 36.7 km/h 39% 0.0 mm 130 W/m2
00:22 21.3 °C 6.8 °C 1009.7 hPa NNW 17.2 km/h 36.7 km/h 39% 0.0 mm 123 W/m2
00:27 21.1 °C 6.6 °C 1009.7 hPa NNW 21.9 km/h 35.6 km/h 39% 0.0 mm 115 W/m2
00:32 21.0 °C 6.6 °C 1009.7 hPa NW 24.5 km/h 35.6 km/h 39% 0.0 mm 107 W/m2
00:37 21.0 °C 6.6 °C 1009.7 hPa NW 14.8 km/h 33.1 km/h 39% 0.0 mm 100 W/m2
00:42 21.0 °C 6.6 °C 1009.7 hPa NW 15.8 km/h 35.6 km/h 39% 0.0 mm 97 W/m2
00:47 20.9 °C 6.8 °C 1009.7 hPa NW 11.1 km/h 35.6 km/h 40% 0.0 mm 95 W/m2
00:52 20.9 °C 6.8 °C 1009.7 hPa NW 8.7 km/h 27.0 km/h 40% 0.0 mm 86 W/m2
00:57 20.8 °C 6.7 °C 1009.7 hPa NW 9.7 km/h 30.6 km/h 40% 0.0 mm 82 W/m2
01:02 20.7 °C 6.3 °C 1009.7 hPa NW 13.4 km/h 30.6 km/h 39% 0.0 mm 80 W/m2
01:07 20.6 °C 6.6 °C 1009.7 hPa NW 14.8 km/h 25.6 km/h 40% 0.0 mm 71 W/m2
01:12 20.6 °C 6.9 °C 1009.7 hPa WNW 12.2 km/h 25.6 km/h 41% 0.0 mm 58 W/m2
01:17 20.5 °C 6.4 °C 1009.7 hPa NW 12.2 km/h 27.0 km/h 40% 0.0 mm 66 W/m2
01:22 20.4 °C 6.3 °C 1010.0 hPa NNW 14.8 km/h 27.0 km/h 40% 0.0 mm 62 W/m2
01:27 20.4 °C 6.3 °C 1009.7 hPa NW 9.7 km/h 23.3 km/h 40% 0.0 mm 46 W/m2
01:32 20.3 °C 6.6 °C 1009.7 hPa NW 9.7 km/h 21.9 km/h 41% 0.0 mm 47 W/m2
01:37 20.2 °C 6.2 °C 1009.7 hPa NW 8.7 km/h 19.5 km/h 40% 0.0 mm 48 W/m2
01:42 20.2 °C 6.6 °C 1009.7 hPa NNW 12.2 km/h 20.9 km/h 41% 0.0 mm 41 W/m2
01:47 20.1 °C 6.1 °C 1009.7 hPa NW 8.7 km/h 21.9 km/h 40% 0.0 mm 35 W/m2
01:52 20.1 °C 6.1 °C 1009.7 hPa NW 20.9 km/h 30.6 km/h 40% 0.0 mm 33 W/m2
01:57 20.0 °C 6.3 °C 1009.7 hPa NW 13.4 km/h 30.6 km/h 41% 0.0 mm 28 W/m2
02:02 19.9 °C 6.6 °C 1009.4 hPa NW 15.8 km/h 30.6 km/h 42% 0.0 mm 22 W/m2
02:07 19.9 °C 6.6 °C 1009.7 hPa NW 14.8 km/h 33.1 km/h 42% 0.0 mm 18 W/m2
02:12 19.8 °C 6.5 °C 1009.7 hPa NW 19.5 km/h 34.3 km/h 42% 0.0 mm 14 W/m2
02:17 19.7 °C 6.4 °C 1009.7 hPa NW 8.7 km/h 34.3 km/h 42% 0.0 mm 12 W/m2
02:22 19.6 °C 6.7 °C 1009.4 hPa NW 13.4 km/h 34.3 km/h 43% 0.0 mm 13 W/m2
02:27 19.4 °C 6.5 °C 1009.4 hPa NW 11.1 km/h 31.7 km/h 43% 0.0 mm 10 W/m2
02:32 19.4 °C 6.8 °C 1009.4 hPa NNW 15.8 km/h 31.7 km/h 44% 0.0 mm 6 W/m2
02:37 19.4 °C 6.8 °C 1009.7 hPa NW 11.1 km/h 25.6 km/h 44% 0.0 mm 4 W/m2
02:43 19.3 °C 6.8 °C 1009.7 hPa NW 9.7 km/h 28.0 km/h 44% 0.0 mm 1 W/m2
02:48 19.1 °C 6.9 °C 1009.7 hPa NW 8.7 km/h 24.5 km/h 45% 0.0 mm 0 W/m2
02:53 19.0 °C 6.8 °C 1009.7 hPa NW 7.2 km/h 20.9 km/h 45% 0.0 mm 0 W/m2
02:58 18.8 °C 6.9 °C 1009.7 hPa NW 7.2 km/h 20.9 km/h 46% 0.0 mm 0 W/m2
03:04 18.7 °C 7.2 °C 1009.7 hPa NW 17.2 km/h 24.5 km/h 47% 0.0 mm 0 W/m2
03:09 18.7 °C 7.2 °C 1009.7 hPa NW 8.7 km/h 24.5 km/h 47% 0.0 mm 0 W/m2
03:14 18.6 °C 7.1 °C 1010.0 hPa NW 6.1 km/h 24.5 km/h 47% 0.0 mm 0 W/m2
03:19 18.5 °C 7.0 °C 1010.4 hPa NW 1.1 km/h 15.8 km/h 47% 0.0 mm 0 W/m2
03:25 18.3 °C 7.1 °C 1010.4 hPa NW 3.5 km/h 15.8 km/h 48% 0.0 mm 0 W/m2
03:30 18.2 °C 7.0 °C 1010.0 hPa NW 9.7 km/h 18.3 km/h 48% 0.0 mm 0 W/m2
03:35 18.2 °C 7.0 °C 1010.4 hPa NW 12.2 km/h 23.3 km/h 48% 0.0 mm 0 W/m2
03:40 18.2 °C 7.0 °C 1010.4 hPa NW 6.1 km/h 23.3 km/h 48% 0.0 mm 0 W/m2
03:45 18.1 °C 6.9 °C 1010.4 hPa NW 7.2 km/h 17.2 km/h 48% 0.0 mm 0 W/m2
03:50 18.1 °C 6.9 °C 1010.4 hPa WNW 9.7 km/h 23.3 km/h 48% 0.0 mm 0 W/m2
03:55 18.0 °C 6.8 °C 1010.7 hPa NW 11.1 km/h 23.3 km/h 48% 0.0 mm 0 W/m2
04:00 17.9 °C 7.1 °C 1010.7 hPa NW 1.1 km/h 17.2 km/h 49% 0.0 mm 0 W/m2
04:05 17.7 °C 6.8 °C 1010.7 hPa NW 3.5 km/h 14.8 km/h 49% 0.0 mm 0 W/m2
04:10 17.5 °C 6.9 °C 1010.7 hPa NW 3.5 km/h 9.7 km/h 50% 0.0 mm 0 W/m2
04:15 17.4 °C 6.9 °C 1010.7 hPa NW 6.1 km/h 13.4 km/h 50% 0.0 mm 0 W/m2
04:20 17.4 °C 6.6 °C 1010.7 hPa NW 6.1 km/h 13.4 km/h 49% 0.0 mm 0 W/m2
04:25 17.4 °C 6.9 °C 1010.7 hPa NW 6.1 km/h 13.4 km/h 50% 0.0 mm 0 W/m2
04:30 17.3 °C 6.8 °C 1010.7 hPa WNW 6.1 km/h 12.2 km/h 50% 0.0 mm 0 W/m2
04:47 17.0 °C 6.5 °C 1010.7 hPa NW 7.2 km/h 13.4 km/h 50% 0.0 mm 0 W/m2
04:53 17.0 °C 6.5 °C 1010.7 hPa WNW 2.6 km/h 13.4 km/h 50% 0.0 mm 0 W/m2
04:58 16.8 °C 6.9 °C 1010.7 hPa WNW 6.1 km/h 7.2 km/h 52% 0.0 mm 0 W/m2
05:03 16.7 °C 6.8 °C 1010.7 hPa WNW 6.1 km/h 12.2 km/h 52% 0.0 mm 0 W/m2
05:08 16.6 °C 6.7 °C 1010.7 hPa WNW 1.1 km/h 12.2 km/h 52% 0.0 mm 0 W/m2
05:13 16.4 °C 6.5 °C 1011.1 hPa Calm   11.1 km/h 52% 0.0 mm 0 W/m2
05:19 16.2 °C 6.6 °C 1011.1 hPa West 2.6 km/h 3.5 km/h 53% 0.0 mm 0 W/m2
05:24 16.0 °C 6.4 °C 1010.7 hPa NW 2.6 km/h 6.1 km/h 53% 0.0 mm 0 W/m2
05:29 15.8 °C 6.5 °C 1010.7 hPa WNW 5.0 km/h 7.2 km/h 54% 0.0 mm 0 W/m2
05:34 15.8 °C 6.8 °C 1011.1 hPa NW 5.0 km/h 8.7 km/h 55% 0.0 mm 0 W/m2
05:39 15.8 °C 6.8 °C 1010.7 hPa NW 5.0 km/h 8.7 km/h 55% 0.0 mm 0 W/m2
05:44 15.7 °C 6.7 °C 1010.7 hPa NW 5.0 km/h 12.2 km/h 55% 0.0 mm 0 W/m2
05:49 15.6 °C 6.6 °C 1010.7 hPa NW 6.1 km/h 12.2 km/h 55% 0.0 mm 0 W/m2
05:54 15.6 °C 6.8 °C 1010.7 hPa NW 3.5 km/h 11.1 km/h 56% 0.0 mm 0 W/m2
05:59 15.4 °C 6.7 °C 1010.7 hPa NW 3.5 km/h 9.7 km/h 56% 0.0 mm 0 W/m2
06:04 15.2 °C 6.7 °C 1010.7 hPa NW 5.0 km/h 9.7 km/h 57% 0.0 mm 0 W/m2
06:09 15.2 °C 6.7 °C 1010.7 hPa NW 3.5 km/h 8.7 km/h 57% 0.0 mm 0 W/m2
06:14 15.2 °C 6.7 °C 1010.7 hPa NW 5.0 km/h 7.2 km/h 57% 0.0 mm 0 W/m2
06:19 15.2 °C 6.5 °C 1010.7 hPa NW 3.5 km/h 9.7 km/h 56% 0.0 mm 0 W/m2
06:24 15.2 °C 6.7 °C 1010.7 hPa NW 7.2 km/h 9.7 km/h 57% 0.0 mm 0 W/m2
06:29 15.2 °C 6.5 °C 1010.7 hPa WNW 6.1 km/h 14.8 km/h 56% 0.0 mm 0 W/m2
06:34 15.4 °C 6.4 °C 1010.7 hPa WNW 5.0 km/h 14.8 km/h 55% 0.0 mm 0 W/m2
06:39 15.3 °C 6.3 °C 1010.7 hPa WNW 6.1 km/h 12.2 km/h 55% 0.0 mm 0 W/m2
06:44 15.3 °C 6.3 °C 1010.4 hPa WNW 12.2 km/h 14.8 km/h 55% 0.0 mm 0 W/m2
06:49 15.3 °C 6.6 °C 1010.4 hPa NW 8.7 km/h 14.8 km/h 56% 0.0 mm 0 W/m2
06:54 15.4 °C 6.4 °C 1010.4 hPa NNW 7.2 km/h 14.8 km/h 55% 0.0 mm 0 W/m2
06:59 15.3 °C 6.3 °C 1010.4 hPa NNW 3.5 km/h 14.8 km/h 55% 0.0 mm 0 W/m2
07:04 15.2 °C 6.5 °C 1010.7 hPa NNW 3.5 km/h 11.1 km/h 56% 0.0 mm 0 W/m2
07:09 15.1 °C 6.4 °C 1010.7 hPa NNW 3.5 km/h 11.1 km/h 56% 0.0 mm 0 W/m2
07:14 15.0 °C 6.6 °C 1010.4 hPa North 3.5 km/h 7.2 km/h 57% 0.0 mm 0 W/m2
07:19 14.7 °C 6.5 °C 1010.4 hPa North 5.0 km/h 9.7 km/h 58% 0.0 mm 0 W/m2
07:24 14.5 °C 6.6 °C 1010.4 hPa North 2.6 km/h 9.7 km/h 59% 0.0 mm 0 W/m2
07:29 14.5 °C 6.6 °C 1010.4 hPa North 6.1 km/h 8.7 km/h 59% 0.0 mm 0 W/m2
07:34 14.4 °C 6.5 °C 1010.4 hPa NNW 5.0 km/h 11.1 km/h 59% 0.0 mm 0 W/m2
07:39 14.2 °C 6.6 °C 1010.4 hPa NW 7.2 km/h 11.1 km/h 60% 0.0 mm 0 W/m2
07:45 14.2 °C 6.6 °C 1010.4 hPa NW 6.1 km/h 11.1 km/h 60% 0.0 mm 0 W/m2
07:50 14.1 °C 6.7 °C 1010.4 hPa NW 3.5 km/h 9.7 km/h 61% 0.0 mm 0 W/m2
07:55 13.9 °C 7.0 °C 1010.4 hPa NW 7.2 km/h 12.2 km/h 63% 0.0 mm 0 W/m2
08:00 13.9 °C 7.0 °C 1010.4 hPa NW 9.7 km/h 17.2 km/h 63% 0.0 mm 0 W/m2
08:05 14.3 °C 6.7 °C 1010.0 hPa NW 9.7 km/h 17.2 km/h 60% 0.0 mm 0 W/m2
08:10 14.5 °C 6.6 °C 1010.4 hPa NW 8.7 km/h 15.8 km/h 59% 0.0 mm 0 W/m2
08:15 14.8 °C 6.6 °C 1010.0 hPa WNW 8.7 km/h 17.2 km/h 58% 0.0 mm 0 W/m2
08:20 14.9 °C 6.7 °C 1009.7 hPa NW 11.1 km/h 19.5 km/h 58% 0.0 mm 0 W/m2
08:26 14.8 °C 6.6 °C 1010.0 hPa WNW 8.7 km/h 19.5 km/h 58% 0.0 mm 0 W/m2
08:31 14.6 °C 6.4 °C 1010.0 hPa WNW 8.7 km/h 17.2 km/h 58% 0.0 mm 0 W/m2
08:36 14.4 °C 6.5 °C 1010.0 hPa NW 3.5 km/h 15.8 km/h 59% 0.0 mm 0 W/m2
08:41 14.2 °C 6.6 °C 1010.0 hPa NW 2.6 km/h 11.1 km/h 60% 0.0 mm 0 W/m2
08:46 13.9 °C 6.7 °C 1010.0 hPa North 1.1 km/h 7.2 km/h 62% 0.0 mm 0 W/m2
08:52 13.7 °C 6.8 °C 1010.0 hPa North 3.5 km/h 7.2 km/h 63% 0.0 mm 0 W/m2
08:57 13.5 °C 6.8 °C 1010.0 hPa North 2.6 km/h 7.2 km/h 64% 0.0 mm 0 W/m2
09:02 13.5 °C 7.1 °C 1010.0 hPa North 2.6 km/h 6.1 km/h 65% 0.0 mm 0 W/m2
09:07 13.3 °C 6.9 °C 1010.0 hPa NNW 3.5 km/h 7.2 km/h 65% 0.0 mm 0 W/m2
09:12 13.3 °C 6.9 °C 1010.0 hPa NW 5.0 km/h 8.7 km/h 65% 0.0 mm 0 W/m2
09:17 13.5 °C 7.1 °C 1010.0 hPa NW 3.5 km/h 8.7 km/h 65% 0.0 mm 0 W/m2
09:22 13.4 °C 6.9 °C 1010.0 hPa NW 2.6 km/h 8.7 km/h 65% 0.0 mm 0 W/m2
09:27 13.4 °C 6.9 °C 1010.0 hPa WNW 1.1 km/h 6.1 km/h 65% 0.0 mm 0 W/m2
09:32 13.3 °C 6.9 °C 1010.4 hPa NW 2.6 km/h 6.1 km/h 65% 0.0 mm 0 W/m2
09:37 13.2 °C 6.8 °C 1010.0 hPa NNW 1.1 km/h 5.0 km/h 65% 0.0 mm 0 W/m2
09:42 13.0 °C 6.6 °C 1010.0 hPa Calm   5.0 km/h 65% 0.0 mm 0 W/m2
09:47 12.7 °C 6.5 °C 1010.4 hPa North 1.1 km/h 3.5 km/h 66% 0.0 mm 0 W/m2
09:52 12.7 °C 6.7 °C 1010.0 hPa North 1.1 km/h 3.5 km/h 67% 0.0 mm 0 W/m2
09:58 12.6 °C 6.8 °C 1010.4 hPa North 1.1 km/h 3.5 km/h 68% 0.0 mm 0 W/m2
10:03 12.4 °C 6.7 °C 1010.0 hPa Calm   2.6 km/h 68% 0.0 mm 0 W/m2
10:08 12.2 °C 6.7 °C 1010.0 hPa North 2.6 km/h 5.0 km/h 69% 0.0 mm 0 W/m2
10:13 12.3 °C 7.0 °C 1010.4 hPa North 5.0 km/h 8.7 km/h 70% 0.0 mm 0 W/m2
10:19 12.7 °C 7.2 °C 1010.0 hPa NNW 5.0 km/h 8.7 km/h 69% 0.0 mm 0 W/m2
10:24 12.8 °C 7.1 °C 1010.0 hPa NNW 5.0 km/h 9.7 km/h 68% 0.0 mm 0 W/m2
10:29 12.7 °C 7.2 °C 1010.0 hPa NNW 5.0 km/h 9.7 km/h 69% 0.0 mm 0 W/m2
10:34 12.5 °C 7.2 °C 1010.0 hPa North 1.1 km/h 7.2 km/h 70% 0.0 mm 0 W/m2
10:39 12.2 °C 6.9 °C 1009.7 hPa NNE 2.6 km/h 7.2 km/h 70% 0.0 mm 0 W/m2
10:44 12.0 °C 6.9 °C 1010.0 hPa North 3.5 km/h 5.0 km/h 71% 0.0 mm 0 W/m2
10:49 11.9 °C 7.0 °C 1010.0 hPa North 3.5 km/h 6.1 km/h 72% 0.0 mm 0 W/m2
10:54 11.8 °C 7.1 °C 1010.0 hPa NNW 6.1 km/h 9.7 km/h 73% 0.0 mm 0 W/m2
10:59 11.8 °C 7.1 °C 1009.7 hPa NNW 8.7 km/h 13.4 km/h 73% 0.0 mm 0 W/m2
11:04 11.8 °C 7.1 °C 1009.7 hPa NNW 7.2 km/h 13.4 km/h 73% 0.0 mm 0 W/m2
11:09 11.8 °C 7.1 °C 1010.0 hPa NNW 7.2 km/h 13.4 km/h 73% 0.0 mm 0 W/m2
11:14 11.7 °C 7.0 °C 1009.7 hPa NNW 7.2 km/h 13.4 km/h 73% 0.0 mm 0 W/m2
11:19 11.9 °C 7.2 °C 1009.7 hPa NNW 9.7 km/h 14.8 km/h 73% 0.0 mm 0 W/m2
11:24 11.9 °C 7.2 °C 1009.7 hPa NW 9.7 km/h 17.2 km/h 73% 0.0 mm 0 W/m2
11:29 11.8 °C 7.1 °C 1009.7 hPa NNW 8.7 km/h 17.2 km/h 73% 0.0 mm 0 W/m2
11:34 11.7 °C 7.0 °C 1009.7 hPa NNW 6.1 km/h 15.8 km/h 73% 0.0 mm 0 W/m2
11:39 11.4 °C 6.9 °C 1010.0 hPa NNW 5.0 km/h 13.4 km/h 74% 0.0 mm 0 W/m2
11:44 11.3 °C 6.8 °C 1010.0 hPa NNW 3.5 km/h 12.2 km/h 74% 0.0 mm 0 W/m2
11:49 11.2 °C 6.9 °C 1010.0 hPa North 5.0 km/h 8.7 km/h 75% 0.0 mm 1 W/m2
11:54 11.0 °C 6.7 °C 1010.0 hPa North 2.6 km/h 6.1 km/h 75% 0.0 mm 3 W/m2
11:59 10.9 °C 7.1 °C 1010.0 hPa NNE 2.6 km/h 7.2 km/h 77% 0.0 mm 5 W/m2
12:04 10.9 °C 7.1 °C 1010.0 hPa NE 2.6 km/h 7.2 km/h 77% 0.0 mm 8 W/m2
12:09 11.0 °C 7.1 °C 1010.0 hPa NE 2.6 km/h 6.1 km/h 77% 0.0 mm 11 W/m2
12:14 11.2 °C 7.1 °C 1010.0 hPa NNE 2.6 km/h 6.1 km/h 76% 0.0 mm 14 W/m2
12:19 11.4 °C 7.3 °C 1010.0 hPa NNE 6.1 km/h 7.2 km/h 76% 0.0 mm 17 W/m2
12:24 11.7 °C 7.4 °C 1009.7 hPa North 5.0 km/h 9.7 km/h 75% 0.0 mm 20 W/m2
12:29 12.0 °C 7.3 °C 1010.0 hPa NNW 5.0 km/h 9.7 km/h 73% 0.0 mm 28 W/m2
12:34 12.4 °C 7.5 °C 1010.0 hPa North 5.0 km/h 8.7 km/h 72% 0.0 mm 28 W/m2
12:39 12.9 °C 7.8 °C 1010.0 hPa North 3.5 km/h 7.2 km/h 71% 0.0 mm 58 W/m2
12:44 13.4 °C 7.6 °C 1009.7 hPa NNW 3.5 km/h 9.7 km/h 68% 0.0 mm 67 W/m2
12:49 13.8 °C 7.8 °C 1010.0 hPa NNW 2.6 km/h 9.7 km/h 67% 0.0 mm 77 W/m2
12:54 14.4 °C 7.9 °C 1010.0 hPa NNW 3.5 km/h 11.1 km/h 65% 0.0 mm 88 W/m2
12:59 14.6 °C 7.9 °C 1010.0 hPa NNW 5.0 km/h 12.2 km/h 64% 0.0 mm 98 W/m2
13:04 15.0 °C 8.0 °C 1010.0 hPa North 2.6 km/h 12.2 km/h 63% 0.0 mm 110 W/m2
13:09 15.6 °C 8.3 °C 1010.4 hPa NNE 3.5 km/h 7.2 km/h 62% 0.0 mm 122 W/m2
13:14 15.9 °C 7.9 °C 1010.0 hPa Calm   7.2 km/h 59% 0.0 mm 134 W/m2
13:19 16.0 °C 7.7 °C 1010.4 hPa NNE 3.5 km/h 7.2 km/h 58% 0.0 mm 148 W/m2
13:24 15.8 °C 7.8 °C 1010.0 hPa NNW 5.0 km/h 9.7 km/h 59% 0.0 mm 161 W/m2
13:29 16.0 °C 7.7 °C 1010.0 hPa NNW 5.0 km/h 9.7 km/h 58% 0.0 mm 172 W/m2
13:34 16.2 °C 7.9 °C 1010.4 hPa NNW 3.5 km/h 8.7 km/h 58% 0.0 mm 185 W/m2
13:39 16.7 °C 8.2 °C 1010.4 hPa NNW 5.0 km/h 8.7 km/h 57% 0.0 mm 198 W/m2
13:44 16.9 °C 8.1 °C 1010.4 hPa North 3.5 km/h 8.7 km/h 56% 0.0 mm 212 W/m2
13:49 17.1 °C 8.0 °C 1010.4 hPa North 3.5 km/h 8.7 km/h 55% 0.0 mm 225 W/m2
13:54 17.3 °C 7.9 °C 1010.0 hPa NNW 6.1 km/h 9.7 km/h 54% 0.0 mm 239 W/m2
13:59 17.0 °C 7.9 °C 1010.4 hPa NW 3.5 km/h 9.7 km/h 55% 0.0 mm 252 W/m2
14:04 17.3 °C 8.2 °C 1010.4 hPa NW 3.5 km/h 11.1 km/h 55% 0.0 mm 265 W/m2
14:09 17.3 °C 8.2 °C 1010.7 hPa NW 3.5 km/h 11.1 km/h 55% 0.0 mm 280 W/m2
14:14 17.8 °C 8.4 °C 1010.7 hPa NNW 5.0 km/h 9.7 km/h 54% 0.0 mm 294 W/m2
14:19 17.7 °C 8.0 °C 1010.4 hPa NW 7.2 km/h 12.2 km/h 53% 0.0 mm 307 W/m2
14:25 17.6 °C 7.9 °C 1010.4 hPa NW 8.7 km/h 12.2 km/h 53% 0.0 mm 327 W/m2
14:30 17.8 °C 8.7 °C 1010.4 hPa NW 2.6 km/h 12.2 km/h 55% 0.0 mm 343 W/m2
14:35 18.7 °C 9.5 °C 1010.7 hPa NNW 3.5 km/h 11.1 km/h 55% 0.0 mm 362 W/m2
14:40 19.1 °C 8.4 °C 1010.7 hPa Calm   8.7 km/h 50% 0.0 mm 377 W/m2
14:45 20.0 °C 8.7 °C 1010.7 hPa Calm   8.7 km/h 48% 0.0 mm 401 W/m2
14:50 20.2 °C 8.6 °C 1010.7 hPa NNW 6.1 km/h 12.2 km/h 47% 0.0 mm 418 W/m2
14:55 19.7 °C 8.7 °C 1010.7 hPa NW 3.5 km/h 12.2 km/h 49% 0.0 mm 435 W/m2
15:00 20.0 °C 8.9 °C 1010.7 hPa NW 1.1 km/h 12.2 km/h 49% 0.0 mm 455 W/m2
15:05 20.7 °C 8.7 °C 1010.7 hPa North 3.5 km/h 7.2 km/h 46% 0.0 mm 476 W/m2
15:10 21.0 °C 8.6 °C 1010.7 hPa ENE 2.6 km/h 8.7 km/h 45% 0.0 mm 506 W/m2
15:15 21.1 °C 8.4 °C 1010.7 hPa SSE 1.1 km/h 8.7 km/h 44% 0.0 mm 514 W/m2
15:20 21.2 °C 8.8 °C 1010.7 hPa SSW 7.2 km/h 14.8 km/h 45% 0.0 mm 535 W/m2
15:25 20.9 °C 9.5 °C 1010.7 hPa SW 15.8 km/h 18.3 km/h 48% 0.0 mm 551 W/m2
15:30 20.3 °C 8.3 °C 1010.7 hPa SW 15.8 km/h 21.9 km/h 46% 0.0 mm 573 W/m2
15:35 20.3 °C 8.3 °C 1010.7 hPa SW 15.8 km/h 23.3 km/h 46% 0.0 mm 585 W/m2
15:40 20.2 °C 8.2 °C 1010.7 hPa WSW 12.2 km/h 23.3 km/h 46% 0.0 mm 607 W/m2
15:45 20.1 °C 8.1 °C 1011.1 hPa SW 15.8 km/h 24.5 km/h 46% 0.0 mm 636 W/m2
15:50 20.1 °C 7.5 °C 1010.7 hPa WSW 15.8 km/h 24.5 km/h 44% 0.0 mm 655 W/m2
15:55 20.1 °C 7.5 °C 1010.7 hPa West 17.2 km/h 24.5 km/h 44% 0.0 mm 680 W/m2
16:00 20.1 °C 7.8 °C 1011.1 hPa WSW 15.8 km/h 24.5 km/h 45% 0.0 mm 697 W/m2
16:05 20.3 °C 9.2 °C 1011.1 hPa SW 12.2 km/h 24.5 km/h 49% 0.0 mm 707 W/m2
16:10 19.9 °C 11.7 °C 1010.7 hPa SSW 14.8 km/h 23.3 km/h 59% 0.0 mm 721 W/m2
16:15 19.5 °C 11.6 °C 1011.1 hPa South 14.8 km/h 20.9 km/h 60% 0.0 mm 733 W/m2
16:20 19.3 °C 11.6 °C 1011.1 hPa SSW 11.1 km/h 19.5 km/h 61% 0.0 mm 746 W/m2
16:25 19.5 °C 11.3 °C 1011.1 hPa South 12.2 km/h 19.5 km/h 59% 0.0 mm 758 W/m2
16:30 19.3 °C 10.8 °C 1010.7 hPa South 9.7 km/h 21.9 km/h 58% 0.0 mm 769 W/m2
16:35 19.5 °C 11.3 °C 1010.7 hPa South 9.7 km/h 21.9 km/h 59% 0.0 mm 784 W/m2
16:40 20.1 °C 11.6 °C 1010.7 hPa South 13.4 km/h 18.3 km/h 58% 0.0 mm 803 W/m2
16:45 20.1 °C 11.3 °C 1010.7 hPa South 12.2 km/h 18.3 km/h 57% 0.0 mm 814 W/m2
16:49 20.1 °C 11.6 °C 1010.7 hPa SSW 8.7 km/h 19.5 km/h 58% 0.0 mm 822 W/m2
16:54 19.8 °C 11.8 °C 1011.1 hPa SSW 13.4 km/h 19.5 km/h 60% 0.0 mm 830 W/m2
16:59 19.3 °C 10.8 °C 1010.7 hPa South 12.2 km/h 18.3 km/h 58% 0.0 mm 835 W/m2
17:04 19.3 °C 11.1 °C 1010.7 hPa South 12.2 km/h 18.3 km/h 59% 0.0 mm 844 W/m2
17:10 19.3 °C 11.1 °C 1010.7 hPa South 12.2 km/h 20.9 km/h 59% 0.0 mm 856 W/m2
17:15 19.6 °C 11.4 °C 1010.7 hPa South 12.2 km/h 20.9 km/h 59% 0.0 mm 864 W/m2
17:20 20.0 °C 11.8 °C 1010.7 hPa South 8.7 km/h 18.3 km/h 59% 0.0 mm 875 W/m2
17:25 20.1 °C 11.8 °C 1010.7 hPa South 11.1 km/h 17.2 km/h 59% 0.0 mm 884 W/m2
17:30 19.9 °C 11.9 °C 1010.7 hPa South 12.2 km/h 20.9 km/h 60% 0.0 mm 888 W/m2
17:35 20.1 °C 12.1 °C 1010.7 hPa South 7.2 km/h 20.9 km/h 60% 0.0 mm 893 W/m2
17:40 19.9 °C 11.4 °C 1010.7 hPa South 7.2 km/h 19.5 km/h 58% 0.0 mm 900 W/m2
17:45 19.9 °C 12.2 °C 1010.7 hPa South 12.2 km/h 19.5 km/h 61% 0.0 mm 903 W/m2
17:50 20.0 °C 11.8 °C 1010.7 hPa South 14.8 km/h 20.9 km/h 59% 0.0 mm 906 W/m2
18:09 19.9 °C 11.7 °C 1010.7 hPa SSE 13.4 km/h 24.5 km/h 59% 0.0 mm 915 W/m2
18:14 19.2 °C 12.7 °C 1010.7 hPa South 18.3 km/h 24.5 km/h 66% 0.0 mm 910 W/m2
18:19 18.6 °C 12.8 °C 1010.7 hPa South 15.8 km/h 27.0 km/h 69% 0.0 mm 905 W/m2
18:24 18.7 °C 12.7 °C 1010.7 hPa South 12.2 km/h 27.0 km/h 68% 0.0 mm 906 W/m2
18:29 19.1 °C 13.1 °C 1010.7 hPa South 13.4 km/h 27.0 km/h 68% 0.0 mm 910 W/m2
18:34 19.2 °C 12.7 °C 1010.7 hPa South 14.8 km/h 23.3 km/h 66% 0.0 mm 912 W/m2
18:39 18.8 °C 12.6 °C 1010.4 hPa South 13.4 km/h 24.5 km/h 67% 0.0 mm 911 W/m2
18:44 18.5 °C 12.3 °C 1010.7 hPa South 14.8 km/h 24.5 km/h 67% 0.0 mm 907 W/m2
18:49 18.7 °C 12.7 °C 1010.7 hPa South 14.8 km/h 24.5 km/h 68% 0.0 mm 909 W/m2
18:54 18.7 °C 12.7 °C 1010.7 hPa South 14.8 km/h 24.5 km/h 68% 0.0 mm 909 W/m2
18:59 18.7 °C 12.7 °C 1010.7 hPa South 14.8 km/h 24.5 km/h 68% 0.0 mm 909 W/m2
19:04 18.7 °C 12.7 °C 1010.7 hPa South 14.8 km/h 24.5 km/h 68% 0.0 mm 909 W/m2
19:09 18.7 °C 12.7 °C 1010.7 hPa South 14.8 km/h 24.5 km/h 68% 0.0 mm 909 W/m2
19:14 18.7 °C 12.7 °C 1010.7 hPa South 14.8 km/h 24.5 km/h 68% 0.0 mm 909 W/m2
19:19 18.7 °C 12.7 °C 1010.7 hPa South 14.8 km/h 24.5 km/h 68% 0.0 mm 909 W/m2
19:24 18.7 °C 12.7 °C 1010.7 hPa South 14.8 km/h 24.5 km/h 68% 0.0 mm 909 W/m2
19:29 18.7 °C 12.7 °C 1010.7 hPa South 14.8 km/h 24.5 km/h 68% 0.0 mm 909 W/m2
19:34 18.7 °C 12.7 °C 1010.7 hPa South 14.8 km/h 24.5 km/h 68% 0.0 mm 909 W/m2
19:39 18.7 °C 12.7 °C 1010.7 hPa South 14.8 km/h 24.5 km/h 68% 0.0 mm 909 W/m2
19:44 18.7 °C 12.7 °C 1010.7 hPa South 14.8 km/h 24.5 km/h 68% 0.0 mm 909 W/m2
19:49 18.7 °C 12.7 °C 1010.7 hPa South 14.8 km/h 24.5 km/h 68% 0.0 mm 909 W/m2
19:54 18.7 °C 12.7 °C 1010.7 hPa South 14.8 km/h 24.5 km/h 68% 0.0 mm 909 W/m2
19:59 18.7 °C 12.7 °C 1010.7 hPa South 14.8 km/h 24.5 km/h 68% 0.0 mm 909 W/m2
20:04 18.7 °C 12.7 °C 1010.7 hPa South 14.8 km/h 24.5 km/h 68% 0.0 mm 909 W/m2
20:09 18.7 °C 12.7 °C 1010.7 hPa South 14.8 km/h 24.5 km/h 68% 0.0 mm 909 W/m2
20:14 18.7 °C 12.7 °C 1010.7 hPa South 14.8 km/h 24.5 km/h 68% 0.0 mm 909 W/m2
20:19 18.7 °C 12.7 °C 1010.7 hPa South 14.8 km/h 24.5 km/h 68% 0.0 mm 909 W/m2
20:24 18.7 °C 12.7 °C 1010.7 hPa South 14.8 km/h 24.5 km/h 68% 0.0 mm 909 W/m2
20:30 18.7 °C 12.7 °C 1010.7 hPa South 14.8 km/h 24.5 km/h 68% 0.0 mm 909 W/m2
20:35 18.7 °C 12.7 °C 1010.7 hPa South 14.8 km/h 24.5 km/h 68% 0.0 mm 909 W/m2
20:40 18.7 °C 12.7 °C 1010.7 hPa South 14.8 km/h 24.5 km/h 68% 0.0 mm 909 W/m2
20:45 18.7 °C 12.7 °C 1010.7 hPa South 14.8 km/h 24.5 km/h 68% 0.0 mm 909 W/m2
20:50 18.7 °C 12.7 °C 1010.7 hPa South 14.8 km/h 24.5 km/h 68% 0.0 mm 909 W/m2
20:55 18.7 °C 12.7 °C 1010.7 hPa South 14.8 km/h 24.5 km/h 68% 0.0 mm 909 W/m2
21:00 18.7 °C 12.7 °C 1010.7 hPa South 14.8 km/h 24.5 km/h 68% 0.0 mm 909 W/m2
21:05 18.7 °C 12.7 °C 1010.7 hPa South 14.8 km/h 24.5 km/h 68% 0.0 mm 909 W/m2
21:10 18.7 °C 12.7 °C 1010.7 hPa South 14.8 km/h 24.5 km/h 68% 0.0 mm 909 W/m2
21:15 18.7 °C 12.7 °C 1010.7 hPa South 14.8 km/h 24.5 km/h 68% 0.0 mm 909 W/m2
21:20 18.7 °C 12.7 °C 1010.7 hPa South 14.8 km/h 24.5 km/h 68% 0.0 mm 909 W/m2
21:25 18.7 °C 12.7 °C 1010.7 hPa South 14.8 km/h 24.5 km/h 68% 0.0 mm 909 W/m2
21:30 18.7 °C 12.7 °C 1010.7 hPa South 14.8 km/h 24.5 km/h 68% 0.0 mm 909 W/m2
21:35 18.7 °C 12.7 °C 1010.7 hPa South 14.8 km/h 24.5 km/h 68% 0.0 mm 909 W/m2
21:40 18.7 °C 12.7 °C 1010.7 hPa South 14.8 km/h 24.5 km/h 68% 0.0 mm 909 W/m2
21:45 18.7 °C 12.7 °C 1010.7 hPa South 14.8 km/h 24.5 km/h 68% 0.0 mm 909 W/m2
21:50 18.7 °C 12.7 °C 1010.7 hPa South 14.8 km/h 24.5 km/h 68% 0.0 mm 909 W/m2
21:55 18.7 °C 12.7 °C 1010.7 hPa South 14.8 km/h 24.5 km/h 68% 0.0 mm 909 W/m2
22:00 18.7 °C 12.7 °C 1010.7 hPa South 14.8 km/h 24.5 km/h 68% 0.0 mm 909 W/m2
22:05 18.7 °C 12.7 °C 1010.7 hPa South 14.8 km/h 24.5 km/h 68% 0.0 mm 909 W/m2
22:10 18.7 °C 12.7 °C 1010.7 hPa South 14.8 km/h 24.5 km/h 68% 0.0 mm 909 W/m2
22:15 18.7 °C 12.7 °C 1010.7 hPa South 14.8 km/h 24.5 km/h 68% 0.0 mm 909 W/m2
22:20 18.7 °C 12.7 °C 1010.7 hPa South 14.8 km/h 24.5 km/h 68% 0.0 mm 909 W/m2
22:25 18.7 °C 12.7 °C 1010.7 hPa South 14.8 km/h 24.5 km/h 68% 0.0 mm 909 W/m2
22:30 18.7 °C 12.7 °C 1010.7 hPa South 14.8 km/h 24.5 km/h 68% 0.0 mm 909 W/m2
22:35 18.7 °C 12.7 °C 1010.7 hPa South 14.8 km/h 24.5 km/h 68% 0.0 mm 909 W/m2
22:40 18.7 °C 12.7 °C 1010.7 hPa South 14.8 km/h 24.5 km/h 68% 0.0 mm 909 W/m2
22:46 18.7 °C 12.7 °C 1010.7 hPa South 14.8 km/h 24.5 km/h 68% 0.0 mm 909 W/m2
22:51 18.7 °C 12.7 °C 1010.7 hPa South 14.8 km/h 24.5 km/h 68% 0.0 mm 909 W/m2
22:56 18.7 °C 12.7 °C 1010.7 hPa South 14.8 km/h 24.5 km/h 68% 0.0 mm 909 W/m2
23:01 18.7 °C 12.7 °C 1010.7 hPa South 14.8 km/h 24.5 km/h 68% 0.0 mm 909 W/m2
23:06 18.7 °C 12.7 °C 1010.7 hPa South 14.8 km/h 24.5 km/h 68% 0.0 mm 909 W/m2
23:11 18.7 °C 12.7 °C 1010.7 hPa South 14.8 km/h 24.5 km/h 68% 0.0 mm 909 W/m2
23:16 18.7 °C 12.7 °C 1010.7 hPa South 14.8 km/h 24.5 km/h 68% 0.0 mm 909 W/m2
23:21 18.7 °C 12.7 °C 1010.7 hPa South 14.8 km/h 24.5 km/h 68% 0.0 mm 909 W/m2
23:26 18.7 °C 12.7 °C 1010.7 hPa South 14.8 km/h 24.5 km/h 68% 0.0 mm 909 W/m2
23:31 18.7 °C 12.7 °C 1010.7 hPa South 14.8 km/h 24.5 km/h 68% 0.0 mm 909 W/m2
23:36 18.7 °C 12.7 °C 1010.7 hPa South 14.8 km/h 24.5 km/h 68% 0.0 mm 909 W/m2
23:41 18.7 °C 12.7 °C 1010.7 hPa South 14.8 km/h 24.5 km/h 68% 0.0 mm 909 W/m2
23:46 18.7 °C 12.7 °C 1010.7 hPa South 14.8 km/h 24.5 km/h 68% 0.0 mm 909 W/m2
23:51 18.7 °C 12.7 °C 1010.7 hPa South 14.8 km/h 24.5 km/h 68% 0.0 mm 909 W/m2
23:56 18.7 °C 12.7 °C 1010.7 hPa South 14.8 km/h 24.5 km/h 68% 0.0 mm 909 W/m2
Northern Hawkes Bay. New Zealand Historic Data
Compliments of Weather Underground - 2 mb